Content
SEND FEEDBACK

Daily
Averages
Monthly
Summary
Canada

QUEBEC CITY, QUEBEC


Home > North America > Canada > Quebec
Elevation: 239 feet     Latitude: 46 48N     Longitude: 071 23W

WEATHER
 
SELECT A DAY
Number of Records: 195,930;   Date Range: 6/30/96 - 10/24/14
 
SHARE

PRINT THIS DATA

[ ← Previous Day ]
WEATHER ALMANAC - OCTOBER 5, 2013
[ Next Day → ]
[ °C ]   °F
Weather ElementAverageHighLow
Temperature50 °F60.8 °F (2:00 pm)42.8 °F (1:00 am)
Dewpoint34.8 °F39.2 °F (2:00 pm)30.2 °F (5:00 pm)
Humidity55.9 %76 % (1:00 am)22 % (5:00 pm)
Barometer30.16 in30.25 in (11:00 pm)30.09 in (2:00 pm)
Wind Speed6.4 mph13.8 mph (2:00 pm)
Weather ElementAverage
Visibility22 mi
Wind DirectionSSW (207.2 °)

Weather ElementTotal
Precipitation---
Heating Degree Days13.2 (Base 65)
Growing Degree Days1.8 (Base 50)
Averaged from 29 records on October 5, 2013
WEATHER CONDITIONS BREAKOUT
WIND DIRECTION BREAKOUT
WEATHER BY HOUR - OCTOBER 5, 2013
[ °C ]   °F
Local TimeTemperatureDewpointHumidityBarometerVisibilityWind DirectionWind SpeedGust SpeedPrecipitationEventsConditions
1:00 AM42.8 °F35.6 °F76 %30.15 in15.0 miNorth (10°)5.8 mphPartly Cloudy
2:00 AM43.0 °F36.0 °F69 %30.14 inNorth (10°)3.5 mph
2:00 AM42.8 °F35.6 °F76 %30.15 in15.0 miNNE (20°)6.9 mphScattered Clouds
3:00 AM42.8 °F33.8 °F70 %30.15 in15.0 miNorth (10°)4.6 mphPartly Cloudy
4:00 AM42.8 °F33.8 °F70 %30.17 in15.0 miNNW (330°)9.2 mphPartly Cloudy
5:00 AM43.0 °F37.0 °F71 %30.15 inNW (320°)2.3 mph
5:00 AM42.8 °F35.6 °F76 %30.17 in15.0 miNorth (350°)6.9 mphMostly Cloudy
6:00 AM44.6 °F35.6 °F71 %30.17 in15.0 miNorth (350°)3.5 mphMostly Cloudy
7:00 AM42.8 °F35.6 °F76 %30.17 in20.0 miNNE (20°)6.9 mphMostly Cloudy
8:00 AM45.0 °F37.0 °F64 %30.16 inNorth4.6 mph
8:00 AM46.4 °F35.6 °F66 %30.18 in20.0 miNorth (350°)5.8 mphMostly Cloudy
9:00 AM48.2 °F37.4 °F66 %30.18 in30.0 miNE (40°)2.3 mphMostly Cloudy
10:00 AM51.8 °F35.6 °F54 %30.18 in30.0 miNNW (330°)6.9 mphMostly Cloudy
11:00 AM51.8 °F35.6 °F54 %30.18 in30.0 miNNW (330°)5.8 mphMostly Cloudy
11:00 AM52.0 °F36.0 °F42 %30.16 inNW (320°)4.6 mph
12:00 PM55.4 °F35.6 °F47 %30.17 in30.0 miSW (220°)8.1 mphMostly Cloudy
1:00 PM57.2 °F37.4 °F48 %30.14 in30.0 miWSW (240°)4.6 mphMostly Cloudy
2:00 PM60.0 °F37.0 °F30 %30.09 inWest (260°)6.9 mph
2:00 PM60.8 °F39.2 °F45 %30.12 in30.0 miSW (220°)13.8 mphMostly Cloudy
3:00 PM60.8 °F37.4 °F42 %30.12 in30.0 miWest (260°)5.8 mphScattered Clouds
4:00 PM60.8 °F32.0 °F34 %30.12 in30.0 miWNW (300°)12.7 mphScattered Clouds
5:00 PM59.0 °F30.2 °F34 %30.14 in30.0 miNW (320°)10.4 mphMostly Cloudy
5:00 PM59.0 °F31.0 °F22 %30.11 inNW (310°)8.1 mph
6:00 PM53.6 °F32.0 °F44 %30.15 in30.0 miNNW (330°)6.9 mphMostly Cloudy
7:00 PM51.8 °F32.0 °F47 %30.17 in15.0 miNNW (330°)5.8 mphScattered Clouds
8:00 PM50.0 °F32.0 °F50 %30.18 in15.0 miNNE (30°)3.5 mphPartly Cloudy
9:00 PM48.2 °F32.0 °F54 %30.20 in15.0 miNNE (30°)6.9 mphPartly Cloudy
10:00 PM46.4 °F33.8 °F62 %30.22 in15.0 miNorth (360°)8.1 mphPartly Cloudy
11:00 PM44.6 °F32.0 °F61 %30.25 in15.0 miNorth (10°)4.6 mphMostly Cloudy
Hourly data recorded from CYQB, located miles away from Quebec City, Quebec







STORIES FROM OUR PARTNERS